Location: Lancaster
(34.6980°N, 118.1360°W)
Time: 04:48:46
(UTC-07:00)

OTV 5 (USA 277) - Visible Passes

Search period start: 19 July 2018 00:00
Search period end: 29 July 2018 00:00
Orbit: 312 x 321 km, 54.5° (Epoch: 05 July)

Date Brightness Start Highest point End Pass type
(mag) Time Alt. Az. Time Alt. Az. Time Alt. Az.
25 Jul ? 05:12:28 10° SSE 05:14:15 16° SE 05:16:02 10° E visible
26 Jul ? 05:25:54 10° SSW 05:28:32 57° SE 05:31:11 10° NE visible
28 Jul ? 04:23:00 28° SE 04:23:14 28° SE 04:25:37 10° ENE visible
